Hilo, HI

7:12 PM HST on June 26, 2017 (GMT -1000)
Hilo International

Weather History for PHTO - November, 2012

Change the Weather History Date:

Wednesday, November 21, 2012

  Actual Average Record
Temperature  
Mean Temperature 74 °F 74 °F  
Max Temperature 79 °F 80 °F 85 °F (1950)
Min Temperature 69 °F 67 °F 61 °F (2003)
Degree Days  
Heating Degree Days 0 0  
Month to date heating degree days 0 0  
Since 1 July heating degree days 0 0  
Cooling Degree Days 9 9  
Month to date cooling degree days 191 197  
Year to date cooling degree days 2866 2932  
Growing Degree Days 22 (Base 50)    
Moisture  
Dew Point 67 °F    
Average Humidity 79    
Maximum Humidity 90    
Minimum Humidity 67    
Precipitation  
Precipitation 0.01 in 0.52 in 5.43 in (1987)
Month to date precipitation 4.06 11.07  
Year to date precipitation 77.44 110.72  
Snow  
Snow 0.00 in - - ()
Month to date snowfall 0.0  
Since 1 July snowfall 0.0  
Since 1 September snowfall 0.0  
Snow Depth 0.00 in    
Sea Level Pressure  
Sea Level Pressure 29.99 in    
Wind  
Wind Speed 4 mph (SW)    
Max Wind Speed 9 mph    
Max Gust Speed 12 mph    
Visibility 10 miles    
Events Rain    
T = Trace of Precipitation, MM = Missing Value Source: NWS Daily Summary

Daily Weather History Graph

Daily Weather History Graph

Search for Another Location

Airport or City:

Trip Planner

Search our weather history database for the weather conditions in past years. The results will help you decide how hot, cold, wet, or windy it might be!

Date:

Astronomy

Nov. 21, 2012 Rise Set
Actual Time 6:32 AM HST 5:39 PM HST
Civil Twilight 6:09 AM HST 6:03 PM HST
Nautical Twilight 5:42 AM HST 6:30 PM HST
Astronomical Twilight 5:15 AM HST 6:56 PM HST
Moon 1:19 PM HST (11/21) 12:49 AM HST (11/21)
Length of Visible Light 11h 54m
Length of Day
11h 07m
Waxing Gibbous, 63% of the Moon is Illuminated
Nov 21
Waxing Gibbous
Nov 28
Full
Dec 6
Last Quarter
Dec 12
New
Dec 19
First Quarter

Hourly Weather History & Observations

Time (HST) Temp. Dew Point Humidity Pressure Visibility Wind Dir Wind Speed Gust Speed Precip Events Conditions
12:22 AM 69.8 °F 66.2 °F 88% 30.02 in 6.0 mi WSW 6.9 mph - 0.00 in Rain Light Rain
12:53 AM 69.1 °F 66.9 °F 93% 30.02 in 10.0 mi West 5.8 mph - 0.00 in   Overcast
1:53 AM 69.1 °F 66.9 °F 93% 30.01 in 10.0 mi WSW 3.5 mph - N/A   Overcast
2:22 AM 69.8 °F 66.2 °F 88% 30.00 in 10.0 mi Calm Calm - N/A   Overcast
2:53 AM 69.1 °F 66.9 °F 93% 29.99 in 9.0 mi West 6.9 mph - N/A   Overcast
3:06 AM 69.8 °F 66.2 °F 88% 29.99 in 10.0 mi WSW 6.9 mph - N/A   Overcast
3:53 AM 69.1 °F 66.9 °F 93% 29.98 in 10.0 mi WSW 6.9 mph - N/A   Overcast
4:37 AM 69.8 °F 66.2 °F 88% 29.98 in 10.0 mi WSW 5.8 mph - N/A   Overcast
4:53 AM 69.1 °F 66.0 °F 90% 29.99 in 10.0 mi SW 4.6 mph - N/A   Overcast
5:53 AM 69.1 °F 66.0 °F 90% 30.00 in 10.0 mi West 5.8 mph - N/A   Overcast
6:53 AM 69.1 °F 66.9 °F 93% 30.01 in 10.0 mi WSW 3.5 mph - N/A   Overcast
7:14 AM 69.8 °F 66.2 °F 88% 30.01 in 10.0 mi Calm Calm - N/A   Overcast
7:53 AM 70.0 °F 66.9 °F 90% 30.02 in 8.0 mi Calm Calm - N/A   Overcast
8:25 AM 71.6 °F 66.2 °F 83% 30.03 in 10.0 mi West 3.5 mph - N/A   Overcast
8:53 AM 73.0 °F 68.0 °F 84% 30.03 in 10.0 mi WSW 3.5 mph - N/A   Overcast
9:53 AM 75.0 °F 66.9 °F 76% 30.03 in 10.0 mi Calm Calm - N/A   Overcast
10:00 AM 75.2 °F 66.2 °F 73% 30.03 in 10.0 mi Calm Calm - N/A   Overcast
10:36 AM 77.0 °F 66.2 °F 69% 30.01 in 10.0 mi Calm Calm - N/A   Overcast
10:53 AM 77.0 °F 66.9 °F 71% 30.00 in 10.0 mi Calm Calm - N/A   Overcast
11:53 AM 79.0 °F 66.9 °F 66% 29.97 in 10.0 mi ESE 3.5 mph - N/A   Mostly Cloudy
12:53 PM 75.9 °F 68.0 °F 76% 29.94 in 10.0 mi ESE 6.9 mph - N/A   Overcast
1:53 PM 75.9 °F 68.0 °F 76% 29.92 in 10.0 mi SE 5.8 mph - 0.00 in Rain Light Rain
2:53 PM 75.9 °F 68.0 °F 76% 29.92 in 10.0 mi SE 5.8 mph - 0.00 in   Overcast
3:53 PM 75.0 °F 69.1 °F 82% 29.92 in 10.0 mi SSE 4.6 mph - N/A   Overcast
4:23 PM 75.2 °F 68.0 °F 78% 29.93 in 10.0 mi South 4.6 mph - N/A   Overcast
4:53 PM 73.9 °F 68.0 °F 82% 29.94 in 10.0 mi SW 3.5 mph - N/A   Mostly Cloudy
5:53 PM 73.9 °F 68.0 °F 82% 29.95 in 10.0 mi WSW 4.6 mph - N/A   Overcast
6:33 PM 73.4 °F 68.0 °F 83% 29.97 in 10.0 mi Calm Calm - N/A   Overcast
6:53 PM 73.0 °F 69.1 °F 87% 29.98 in 7.0 mi Calm Calm - 0.00 in Rain Light Rain
7:03 PM 71.6 °F 68.0 °F 88% 29.99 in 8.0 mi Calm Calm - 0.01 in Rain Light Rain
7:53 PM 72.0 °F 68.0 °F 87% 30.00 in 10.0 mi WSW 6.9 mph - 0.01 in   Overcast
8:53 PM 72.0 °F 68.0 °F 87% 30.00 in 10.0 mi SW 4.6 mph - N/A   Mostly Cloudy
9:18 PM 71.6 °F 66.2 °F 83% 30.00 in 10.0 mi SW 3.5 mph - N/A   Overcast
9:44 PM 71.6 °F 66.2 °F 83% 30.00 in 10.0 mi Calm Calm - N/A   Overcast
9:53 PM 72.0 °F 66.9 °F 84% 29.99 in 10.0 mi SSW 3.5 mph - N/A   Mostly Cloudy
10:53 PM 71.1 °F 66.9 °F 87% 29.99 in 10.0 mi South 5.8 mph - N/A   Mostly Cloudy
11:23 PM 71.6 °F 66.2 °F 83% 29.98 in 10.0 mi South 4.6 mph - N/A   Overcast
11:53 PM 71.1 °F 68.0 °F 90% 29.98 in 10.0 mi SE 5.8 mph - N/A   Overcast